Wind_Speed
60 60 60 60 60 59 58 57 56 54 51 49 47 45 44 42 41 40 38 36 34 33 31 29 27 25 24 23 22 21 21 20 21 23 25 27 28 29 29 28 28 29 28
65 65 65 65 64 64 64 63 62 60 58 55 52 50 47 45 44 43 41 39 36 34 32 30 28 26 24 23 21 20 20 20 20 21 24 26 27 28 28 29 29 28 28
69 68 68 68 68 68 67 67 66 65 64 62 59 56 52 49 47 46 44 42 39 37 35 32 30 28 25 23 21 20 19 19 19 20 23 25 26 26 27 27 26 26 25
75 75 74 74 74 73 72 71 70 69 67 65 64 61 57 54 52 49 47 45 42 40 37 35 32 29 26 23 21 20 19 19 19 19 21 23 24 24 25 26 25 24 24
72 73 74 75 77 78 78 78 77 75 73 71 68 65 63 60 57 54 51 48 45 42 40 37 34 30 27 24 21 19 18 18 18 19 20 22 23 24 24 25 25 26 24
51 51 53 56 60 65 71 76 78 80 80 78 75 72 69 65 62 59 55 52 49 45 42 39 35 31 27 24 21 20 19 18 19 18 19 20 22 23 23 23 24 25 24
41 41 41 41 42 43 47 53 60 67 73 77 79 78 75 71 66 62 57 55 52 48 44 41 36 32 28 25 22 21 20 18 18 18 19 21 22 24 24 24 24 24 23
43 42 42 41 40 39 39 40 43 48 54 62 69 74 76 75 70 65 60 57 52 49 46 43 38 33 29 26 24 22 21 19 18 18 19 21 22 22 22 23 23 23 22
46 46 45 43 42 41 39 37 37 38 40 45 51 59 65 69 71 68 62 57 51 49 46 43 39 34 30 27 25 23 22 21 20 19 20 20 21 23 23 23 23 22 20
48 47 45 45 44 43 41 40 39 39 37 36 39 44 51 56 61 64 63 56 51 49 44 41 38 34 31 29 27 25 23 22 20 19 19 20 21 22 22 21 21 20 18
49 48 46 45 43 42 40 39 38 37 36 34 33 35 40 45 51 56 58 55 51 49 45 41 37 35 32 31 29 27 25 23 21 20 19 20 21 21 21 20 19 18 16
48 46 45 43 42 41 39 37 36 35 33 31 31 30 32 36 43 50 53 53 49 46 44 41 36 34 33 31 29 28 27 25 22 21 20 20 20 20 21 21 19 17 16
47 44 42 41 40 39 37 35 33 32 31 30 28 27 28 30 35 44 51 53 51 47 44 40 36 34 33 31 30 28 27 24 22 21 20 19 20 20 20 19 17 16 16
43 41 41 40 38 36 33 32 31 30 29 28 27 26 26 29 31 38 47 52 50 47 44 42 39 36 34 32 29 27 26 24 21 20 19 19 19 19 19 17 17 16 16
40 37 37 35 33 31 29 29 28 27 26 25 24 24 24 26 29 34 42 51 49 47 45 42 39 36 33 30 28 26 25 23 21 20 19 19 18 18 18 17 18 18 17
34 33 31 30 28 27 26 24 24 23 22 21 20 21 21 21 25 31 40 49 49 47 44 41 38 35 31 29 27 26 24 22 21 21 20 20 19 19 19 19 19 18 17
27 26 25 24 22 20 19 19 18 18 17 16 16 16 17 18 22 29 38 46 48 45 43 40 37 34 31 29 27 25 24 22 22 22 21 21 20 20 20 19 19 17 16
20 19 17 15 14 14 15 15 15 15 14 12 11 12 14 17 20 27 35 43 45 42 42 39 35 32 29 27 26 24 23 23 23 23 22 21 21 21 20 20 18 17 15
13 10 8 7 9 13 14 15 15 14 12 11 10 11 13 15 19 26 34 40 41 39 38 36 33 31 29 27 25 24 24 24 24 24 22 21 21 21 21 19 18 16 15
8 3 3 7 11 13 15 15 15 13 11 9 9 11 13 14 20 28 35 39 39 37 35 33 31 30 28 26 25 25 25 24 24 23 22 21 21 21 20 19 17 16 16
13 11 11 12 13 14 14 14 13 11 11 10 10 11 14 18 25 30 34 35 36 34 32 31 29 28 26 26 26 25 25 24 23 22 21 21 20 20 19 18 17 17 18
20 18 17 16 14 13 13 14 13 11 11 10 11 14 19 23 27 31 33 34 34 32 30 28 27 27 26 26 25 25 24 23 22 21 20 20 19 18 18 18 18 18 19
22 20 19 17 15 15 14 13 13 12 12 13 16 19 22 26 28 32 33 33 32 29 27 26 26 25 25 24 23 23 22 21 20 19 19 18 18 18 18 18 18 20 21
25 22 20 19 18 17 16 15 15 16 17 18 20 22 26 28 31 32 33 32 29 26 24 24 24 24 23 22 21 20 19 18 18 17 17 18 18 18 18 19 20 21 22
25 24 22 20 19 18 18 17 17 18 19 21 24 27 29 30 31 31 30 28 25 24 24 23 22 21 20 19 18 17 16 16 16 16 16 17 18 19 19 20 21 22 22
27 26 24 23 21 20 20 20 21 21 23 25 28 29 30 30 28 28 26 24 23 22 22 20 19 18 17 16 15 14 14 15 15 16 16 17 18 19 20 21 21 22 22
Wind_Direction
278 277 276 275 274 272 271 270 268 267 266 264 263 264 265 267 267 269 269 270 271 273 276 281 287 294 299 302 304 302 294 281 269 260 253 252 253 254 257 260 263 266 268
277 275 274 273 272 271 270 268 268 267 265 264 262 261 261 263 264 265 264 265 266 267 270 275 281 288 294 299 301 301 295 284 273 262 255 252 253 255 258 260 263 265 266
277 275 273 271 270 269 268 267 266 265 265 264 262 261 260 259 260 261 261 260 260 262 264 269 275 282 287 294 298 299 294 285 275 266 258 254 253 255 258 260 262 263 264
276 274 272 270 268 267 266 265 264 264 263 262 261 260 259 257 257 259 259 258 257 258 260 264 269 275 280 287 292 295 292 284 276 267 261 256 255 256 258 259 261 260 261
279 276 273 270 267 265 264 263 262 261 261 261 260 259 258 258 256 257 257 257 257 256 256 259 263 268 274 280 286 290 289 283 275 268 261 256 256 258 259 258 258 257 260
288 285 280 276 272 268 265 262 261 260 260 259 259 258 257 257 257 256 255 257 256 254 253 254 257 262 268 273 280 284 286 282 274 268 263 259 258 258 257 255 253 252 255
294 292 290 288 284 279 274 269 265 262 259 258 257 256 256 256 256 256 255 255 253 250 249 249 251 256 262 269 276 281 282 282 276 269 263 257 257 255 250 248 249 253 253
292 291 290 288 287 286 283 278 273 269 264 259 256 254 254 253 253 253 254 253 250 247 245 244 246 251 257 264 271 276 279 280 276 269 264 258 256 253 251 251 250 252 251
291 289 287 285 285 284 283 282 279 276 272 265 259 255 252 250 249 249 248 247 244 243 240 238 242 247 252 260 267 272 275 275 271 265 261 258 254 253 254 253 248 245 240
290 287 285 283 283 280 279 278 277 275 272 270 264 258 252 249 245 243 242 240 237 236 233 234 238 243 250 258 263 267 269 270 267 263 259 257 253 251 251 248 243 238 228
290 287 284 282 281 280 278 275 273 272 269 267 264 259 252 246 239 234 232 231 230 231 231 234 237 242 247 253 257 261 263 264 263 258 255 254 252 247 242 236 230 223 212
290 286 284 281 279 279 276 271 269 268 264 263 263 259 251 244 236 227 222 219 220 223 226 229 233 238 243 247 252 256 258 259 257 254 252 249 245 240 234 228 219 211 207
289 285 282 281 278 277 274 268 265 263 260 259 259 257 249 242 233 222 214 209 211 216 220 224 227 232 237 242 246 250 252 253 251 248 246 241 237 233 228 219 210 205 202
288 284 281 280 278 275 270 264 261 257 255 255 255 254 249 241 231 219 210 203 203 209 214 216 220 226 231 237 241 243 246 246 244 241 237 233 229 222 214 206 201 199 196
286 283 282 279 276 271 265 261 256 251 248 248 249 249 247 239 227 214 205 200 198 200 206 210 215 221 226 231 234 237 238 238 235 230 226 222 214 203 198 196 196 193 192
286 281 279 277 273 266 260 254 245 241 238 239 242 241 238 230 219 210 204 197 193 193 198 204 210 215 219 223 227 229 231 228 223 218 214 209 201 196 195 194 192 192 194
290 283 278 274 267 256 245 236 229 226 225 228 232 230 226 221 213 204 199 193 188 189 193 198 204 209 213 216 219 221 221 216 210 206 201 197 195 194 193 193 194 196 201
296 287 277 267 251 233 220 212 207 205 207 213 218 214 209 204 199 196 194 190 187 187 190 194 199 205 208 210 211 211 209 205 200 195 193 193 193 193 194 196 200 205 213
314 296 271 240 212 198 192 188 186 188 193 198 199 194 188 183 182 184 186 185 185 186 188 192 196 199 200 201 201 200 198 195 191 189 190 192 194 196 199 203 209 217 227
6 30 135 157 164 167 170 173 175 181 187 184 178 176 173 171 166 170 177 178 180 183 186 190 192 193 192 191 190 189 188 187 187 189 192 195 198 201 206 212 220 230 241
59 78 102 123 139 149 157 162 165 168 169 169 168 169 167 162 158 164 170 172 177 180 181 182 182 182 183 183 183 183 183 185 188 191 195 199 203 208 214 222 231 242 251
70 80 93 107 122 135 143 147 150 153 156 159 158 155 154 155 154 158 164 167 169 171 172 173 175 177 179 180 182 183 185 188 192 196 200 204 209 215 223 231 241 250 259
69 77 86 97 110 120 128 132 136 139 140 142 144 145 146 149 149 151 156 160 162 163 166 170 173 174 175 177 180 184 188 193 197 201 206 212 218 224 232 240 248 256 263
70 77 83 91 100 108 115 120 126 129 131 135 138 141 143 144 145 146 151 155 157 159 161 164 167 169 173 177 182 188 192 197 203 209 216 222 229 235 241 248 254 260 266
66 73 82 90 96 103 109 115 120 125 129 134 137 138 140 143 144 146 149 152 154 156 158 161 165 169 174 180 185 190 196 204 212 219 227 233 238 244 249 253 258 263 268
64 70 77 84 91 97 105 111 116 121 126 132 136 138 140 141 143 146 149 151 153 155 159 162 165 170 175 181 187 195 205 215 223 229 235 242 246 250 254 258 262 266 270
Height
5744 5743 5742 5741 5741 5741 5741 5742 5743 5744 5746 5748 5749 5750 5751 5753 5754 5755 5755 5756 5757 5757 5756 5755 5753 5750 5748 5745 5743 5741 5739 5739 5739 5741 5743 5745 5748 5750 5752 5755 5756 5758 5759
5726 5725 5724 5723 5722 5722 5723 5723 5725 5726 5729 5731 5734 5736 5738 5740 5742 5743 5744 5746 5747 5748 5748 5747 5746 5744 5742 5739 5737 5735 5734 5733 5733 5734 5736 5738 5740 5743 5745 5747 5749 5750 5752
5706 5705 5703 5702 5702 5702 5702 5703 5705 5707 5709 5712 5716 5720 5723 5726 5728 5730 5732 5734 5736 5737 5738 5739 5738 5737 5735 5733 5731 5729 5728 5727 5727 5728 5729 5731 5733 5735 5737 5739 5741 5743 5745
5682 5681 5679 5678 5678 5679 5680 5682 5684 5686 5689 5692 5696 5700 5705 5710 5713 5716 5718 5721 5724 5726 5728 5729 5730 5729 5728 5726 5725 5723 5722 5722 5722 5722 5723 5725 5727 5729 5730 5732 5734 5736 5738
5655 5653 5653 5652 5652 5653 5655 5657 5660 5663 5667 5670 5675 5680 5685 5691 5696 5700 5704 5707 5711 5714 5717 5719 5721 5721 5720 5719 5718 5717 5716 5716 5716 5716 5717 5719 5721 5723 5724 5726 5728 5730 5732
5632 5629 5627 5626 5626 5627 5628 5631 5634 5638 5642 5647 5652 5658 5664 5671 5677 5683 5688 5693 5697 5701 5705 5708 5710 5712 5712 5712 5711 5710 5710 5710 5710 5711 5712 5713 5715 5717 5718 5720 5722 5724 5726
5618 5615 5612 5610 5609 5608 5607 5608 5610 5612 5616 5622 5628 5634 5642 5650 5657 5664 5671 5677 5682 5688 5692 5696 5700 5702 5703 5704 5704 5704 5704 5704 5705 5706 5707 5708 5710 5711 5713 5714 5717 5718 5720
5605 5602 5599 5597 5596 5594 5593 5592 5591 5591 5593 5597 5602 5609 5618 5627 5636 5646 5653 5660 5667 5673 5679 5684 5688 5692 5694 5696 5696 5697 5697 5698 5698 5699 5701 5702 5704 5706 5708 5710 5711 5713 5715
5591 5588 5585 5583 5582 5581 5580 5578 5577 5576 5576 5578 5581 5587 5595 5604 5614 5625 5635 5643 5651 5658 5665 5672 5677 5681 5684 5687 5689 5690 5691 5692 5692 5694 5695 5697 5699 5701 5703 5705 5706 5708 5710
5575 5572 5570 5568 5566 5566 5565 5564 5563 5563 5563 5564 5566 5569 5575 5583 5592 5604 5615 5627 5636 5645 5652 5659 5665 5670 5674 5678 5680 5682 5684 5685 5687 5688 5690 5692 5693 5695 5698 5700 5702 5704 5706
5558 5555 5553 5551 5550 5550 5550 5549 5549 5549 5550 5551 5553 5555 5559 5565 5573 5584 5596 5609 5620 5630 5639 5646 5653 5659 5664 5669 5672 5675 5677 5679 5681 5682 5684 5686 5689 5691 5693 5695 5698 5700 5703
5541 5538 5537 5535 5534 5534 5534 5535 5535 5536 5538 5540 5541 5543 5546 5551 5557 5567 5579 5592 5605 5616 5626 5635 5642 5649 5655 5659 5663 5667 5670 5672 5675 5677 5679 5681 5684 5686 5688 5691 5693 5696 5700
5524 5522 5520 5519 5519 5519 5519 5521 5522 5524 5526 5529 5531 5533 5536 5539 5544 5552 5564 5577 5591 5603 5614 5623 5632 5639 5646 5651 5655 5659 5663 5666 5669 5671 5674 5677 5679 5681 5684 5687 5690 5694 5697
5507 5505 5505 5504 5504 5505 5506 5508 5510 5513 5516 5519 5521 5524 5527 5530 5535 5542 5552 5566 5578 5592 5603 5612 5621 5630 5637 5643 5648 5652 5656 5659 5663 5666 5669 5671 5674 5677 5680 5684 5688 5691 5695
5490 5490 5489 5489 5490 5491 5493 5496 5499 5503 5506 5510 5513 5516 5519 5522 5527 5534 5543 5556 5569 5582 5593 5603 5613 5622 5629 5635 5641 5645 5650 5653 5657 5661 5664 5667 5670 5674 5678 5682 5686 5689 5693
5475 5475 5475 5476 5478 5480 5483 5486 5490 5494 5498 5503 5506 5509 5512 5515 5519 5526 5535 5547 5561 5573 5585 5595 5606 5615 5622 5629 5634 5640 5644 5648 5652 5657 5660 5664 5668 5672 5676 5680 5684 5687 5691
5463 5463 5464 5466 5468 5471 5475 5479 5484 5489 5494 5498 5501 5504 5507 5511 5515 5521 5530 5541 5555 5567 5579 5589 5599 5609 5616 5623 5629 5634 5639 5644 5648 5653 5657 5661 5665 5670 5674 5678 5682 5685 5688
5454 5454 5456 5458 5461 5465 5470 5476 5481 5486 5491 5495 5498 5501 5504 5508 5513 5519 5528 5539 5552 5564 5574 5585 5595 5604 5611 5618 5624 5630 5635 5640 5645 5650 5654 5659 5664 5668 5672 5676 5679 5682 5685
5449 5449 5451 5454 5458 5463 5469 5475 5481 5486 5490 5495 5498 5500 5503 5507 5512 5519 5528 5540 5552 5563 5573 5583 5592 5600 5608 5614 5621 5626 5632 5637 5642 5647 5653 5657 5661 5666 5669 5673 5676 5679 5681
5449 5450 5452 5455 5460 5465 5471 5477 5482 5487 5491 5495 5498 5502 5505 5508 5513 5521 5531 5542 5553 5563 5573 5582 5590 5598 5605 5612 5618 5624 5630 5635 5640 5646 5651 5655 5659 5663 5666 5669 5672 5675 5677
5455 5455 5457 5461 5465 5470 5475 5480 5485 5489 5494 5497 5501 5504 5508 5512 5517 5525 5535 5545 5556 5565 5574 5583 5590 5598 5605 5611 5617 5623 5629 5634 5639 5644 5649 5652 5656 5660 5663 5666 5668 5670 5672
5465 5466 5467 5469 5473 5477 5481 5485 5489 5493 5497 5500 5504 5507 5512 5517 5523 5531 5540 5550 5559 5568 5576 5584 5591 5598 5605 5611 5617 5623 5628 5633 5638 5642 5646 5650 5653 5657 5659 5662 5663 5665 5666
5478 5478 5478 5480 5482 5485 5488 5492 5495 5498 5501 5505 5508 5513 5518 5524 5531 5538 5547 5555 5564 5572 5579 5586 5593 5599 5605 5611 5617 5622 5628 5632 5636 5640 5644 5647 5650 5653 5655 5657 5658 5659 5660
5492 5491 5490 5491 5492 5494 5496 5499 5501 5504 5508 5511 5515 5520 5526 5532 5539 5546 5554 5562 5569 5576 5583 5589 5595 5601 5607 5612 5617 5622 5627 5631 5635 5638 5641 5644 5646 5648 5650 5652 5652 5653 5653
5505 5503 5503 5502 5503 5504 5505 5507 5509 5512 5515 5519 5523 5529 5535 5541 5548 5554 5561 5568 5575 5581 5586 5592 5598 5603 5608 5613 5618 5622 5626 5630 5633 5636 5638 5640 5642 5644 5645 5646 5646 5647 5646
5519 5516 5515 5514 5514 5514 5515 5517 5518 5521 5524 5528 5533 5538 5544 5550 5556 5562 5568 5574 5580 5585 5590 5595 5600 5605 5609 5614 5618 5622 5625 5628 5630 5633 5635 5636 5638 5639 5640 5640 5640 5640 5640